Location: La Maure
(44.2639°N, 5.8716°E)
Time: 18:24:08
(UTC+00:00)

Daily predictions for brighter satellites

Satellite Brightness Start Highest point End
(mag) Time Altitude Azimuth Time Altitude Azimuth Time Altitude Azimuth
Cosmos 1656 4.4 16:55:12 10° SSE 17:00:06 33° ESE 17:05:05 10° NE
Landsat 5 4.5 16:57:57 10° N 17:01:43 47° WNW 17:05:32 10° SW
CZ-4B R/B 3.4 16:56:25 10° SSE 17:02:03 86° WSW 17:07:35 10° NNW
Cosmos 1939 Rocket 3.8 16:59:22 10° SE 17:02:42 27° ENE 17:06:01 10° NNE
USA 307 4.1 16:59:42 10° NW 17:03:26 28° NNE 17:07:09 10° ENE
YAOGAN 1 4.1 17:01:11 10° E 17:03:47 16° ENE 17:06:24 10° NNE
Meteor 2-21 Rocket 4.5 16:58:32 10° N 17:04:42 66° E 17:10:46 10° SSE
Okean O Rocket 1.7 17:01:36 10° SSE 17:05:58 87° WSW 17:10:21 10° NNW
SeaSat 1 4.4 17:05:04 10° NE 17:06:21 11° NE 17:07:39 10° NNE
Cosmos 1331 Rocket 4.1 17:02:17 10° SSW 17:07:27 86° WNW 17:12:39 10° NNE
USA 308 4.1 17:04:38 10° NW 17:08:24 29° NNE 17:12:08 10° ENE
Cosmos 1408 4.3 17:08:08 10° NE 17:10:06 14° ENE 17:12:03 10° ESE
Timation 2 Rocket 4.1 17:03:59 10° NNW 17:10:38 75° ENE 17:17:27 10° SSE
NOAA 12 4.2 17:06:57 10° SSE 17:12:14 84° WSW 17:17:37 10° NNW
Cosmos 1726 Rocket 3.5 17:08:10 10° S 17:12:28 67° E 17:16:50 10° NNE
USA 215 4.4 17:08:08 10° ENE 17:13:34 29° N 17:18:59 10° NW
Cosmos 2227 Rocket 2.6 17:09:09 10° NNW 17:14:31 42° ENE 17:19:51 10° SE
Helios 1A Rocket 3.9 17:11:33 10° SE 17:14:59 26° ENE 17:18:26 10° N
Cosmos 2228 3.1 17:11:21 10° S 17:15:35 83° W 17:19:53 10° N
Cosmos 1892 3.7 17:12:54 10° NNE 17:16:09 25° ENE 17:19:24 10° SE
ATLAS 2AS CENTAUR R/B 4.2 17:11:05 10° NNW 17:16:49 22° NNE 17:22:01 11° ENE
Aureole 3 Rocket 3.5 17:13:21 10° SSE 17:17:07 44° E 17:22:15 10° NNE
Cosmos 2263 Rocket 4.1 17:16:21 10° NNE 17:17:23 10° NE 17:18:24 10° NE
Cosmos 1400 Rocket 3.1 17:13:28 10° SSE 17:17:24 46° E 17:21:20 10° NNE
Cosmos 1758 Rocket 4.4 17:13:19 10° NNW 17:17:38 56° W 17:21:52 10° S
Cosmos 292 Rocket 3.9 17:15:01 10° SSW 17:19:49 85° WNW 17:24:41 10° NNE
IRS-1C Rocket 4.3 17:16:22 10° SE 17:21:26 50° ENE 17:26:32 10° N
Cosmos 1553 Rocket 4.3 17:18:04 10° SSE 17:24:03 46° E 17:30:00 10° NNE
Cosmos 968 Rocket 3.9 17:19:15 10° N 17:24:10 40° ENE 17:29:00 10° SE
Cosmos 1300 2.8 17:21:58 10° S 17:25:45 82° W 17:29:36 10° N
Atlas Centaur 2 4.4 17:20:01 10° SW 17:26:35 27° SSE 17:33:22 10° ESE
FALCON 9 DEB 3.6 17:23:40 10° WSW 17:26:50 49° NNW 17:29:34 13° NE
Milstar 3 4.5 17:22:20 10° SW 17:27:41 21° S 17:32:37 10° SE
Lacrosse 5 3.7 17:24:43 10° NW 17:28:20 19° N 17:31:57 10° NE
Cosmos 1606 Rocket 4.1 17:24:12 10° SSW 17:28:32 64° W 17:32:56 10° N
CZ-4 R/B 2.2 17:25:27 10° SE 17:28:46 28° ENE 17:32:05 10° N
Cosmos 1697 Rocket 3.4 17:24:09 10° SSE 17:28:58 30° ESE 17:33:49 10° NE
SMAP 4.1 17:25:23 10° S 17:29:53 49° W 17:34:25 10° NNW
FALCON 9 DEB 3.8 17:26:51 10° WSW 17:29:56 44° NNW 17:32:31 14° NE
Cosmos 2058 3.7 17:29:38 10° NNE 17:33:14 29° ENE 17:36:48 10° SE
Cosmos 1825 3.7 17:31:54 10° NNE 17:34:22 17° ENE 17:34:22 17° ENE
PSLV R/B 4.2 17:30:56 10° NNE 17:34:57 45° E 17:38:55 10° S
SAR-Lupe-4 3.4 17:31:39 10° NNE 17:35:15 77° ESE 17:38:50 10° S
CZ-2D R/B 3.5 17:33:08 10° SE 17:36:46 45° ENE 17:40:25 10° N
SKYMED 2 3.5 17:34:32 10° NNE 17:38:52 64° E 17:43:09 10° S
ERS-2 3.1 17:35:38 10° N 17:39:10 48° WNW 17:42:40 10° SSW
Cosmos 1302 Rocket 4.0 17:33:58 10° SSW 17:39:14 88° WNW 17:44:34 10° NNE
NOAA 11 4.4 17:34:36 10° S 17:40:02 78° WSW 17:45:30 10° NNW
Cosmos 220 Rocket 4.5 17:36:56 10° S 17:40:58 38° ESE 17:45:04 10° NE
SL-4 R/B 3.0 17:37:56 10° NW 17:41:01 27° N 17:42:47 19° NE
Okean-O 2.9 17:37:07 10° SE 17:41:20 45° ENE 17:45:35 10° N
USA 281 4.1 17:36:05 10° S 17:42:28 54° WSW 17:48:54 10° NNW
Cosmos 1346 Rocket 3.3 17:39:15 10° N 17:43:00 37° ENE 17:46:43 10° SE
FALCON 9 DEB 4.1 17:40:16 10° W 17:43:20 38° NNW 17:45:25 18° NE
SL-08 R/B 4.4 17:40:13 10° N 17:46:23 68° E 17:52:26 10° SSE
Cosmos 1340 2.6 17:42:45 10° N 17:46:34 88° E 17:50:20 10° S
Cosmos 1486 Rocket 4.0 17:44:00 10° NNW 17:49:20 68° ENE 17:54:37 10° SSE
Cosmos 1315 Rocket 3.3 17:46:18 10° SSE 17:49:54 35° E 17:53:35 10° NNE
Cosmos 1745 Rocket 4.1 17:45:03 10° N 17:51:13 54° ENE 17:57:25 10° SSE
Cosmos 1980 Rocket 3.1 17:47:43 10° SSE 17:52:11 25° ESE 17:53:26 23° E
SAR-Lupe-1 4.4 17:49:33 10° N 17:53:07 68° WNW 17:56:41 10° SSW
Cosmos 1689 Rocket 2.0 17:50:55 10° N 17:53:49 82° W 17:56:41 10° SSW
FALCON 9 DEB 4.3 17:51:03 10° W 17:53:59 32° NNW 17:55:34 20° NNE
USA 305 3.4 17:49:53 10° NW 17:54:02 44° NNE 17:55:45 29° E
Cosmos 2297 Rocket 2.3 17:48:38 10° NNW 17:54:20 83° WSW 17:59:59 10° SSE
In-Cosmos 22 Rocket 4.1 17:50:59 10° N 17:56:23 88° W 18:01:53 10° S
CZ-4B R/B 3.4 17:53:43 10° N 17:56:30 27° WNW 17:59:14 10° SW
CSL-04 Debris 4.5 17:53:52 10° SE 17:58:58 44° ENE 18:04:08 10° N
Cosmos 1503 Rocket 4.2 17:54:16 10° N 17:59:19 47° ENE 18:03:10 17° SE
Aureole 3 3.7 17:56:33 10° SSW 17:59:35 46° W 18:02:28 10° N
USA 306 3.3 17:56:21 10° NW 18:00:31 48° NNE 18:01:57 34° E
Cosmos 1386 Rocket 4.5 17:56:00 10° N 18:02:22 63° E 18:08:36 10° SSE
Cosmos 2058 Rocket 3.9 17:59:50 10° SSW 18:04:14 55° WNW 18:08:41 10° N
CZ-2C R/B 3.2 18:01:47 10° SSE 18:07:32 68° ENE 18:13:07 10° N
Cosmos 1354 Rocket 4.1 18:06:22 10° NNW 18:11:32 53° ENE 18:14:14 27° SE
Cosmos 2360 4.3 18:06:11 10° S 18:11:43 52° ESE 18:15:32 20° NE
Cosmos 1455 2.0 18:09:54 10° S 18:13:38 70° E 18:17:16 11° NNE
NOAA 15 4.5 18:08:37 10° SSE 18:13:55 80° ENE 18:19:16 10° NNW
CZ-4C R/B 4.1 18:09:41 10° NNW 18:14:55 23° NNE 18:16:59 20° NE
Cosmos 1992 Rocket 3.9 18:11:48 10° SSW 18:17:00 82° ESE 18:22:14 10° NNE
Meteor 2-10 Rocket 3.5 18:13:59 10° S 18:19:18 88° W 18:24:28 10° N
Cosmos 1709 Rocket 4.1 18:14:38 10° N 18:20:52 53° ENE 18:27:05 10° SSE
Cosmos 1076 Rocket 3.3 18:18:12 10° N 18:22:28 73° E 18:25:00 23° SSE
Cosmos 2278 3.9 18:18:05 10° S 18:23:29 47° ESE 18:24:51 39° ENE
Cosmos 2219 4.4 18:20:43 10° NW 18:26:09 44° WSW 18:31:34 10° S
COSMO-SKYMED 1 3.9 18:22:46 10° N 18:26:50 40° WNW 18:30:53 10° SW
Geosat 3.8 18:29:49 32° NE 18:32:10 73° ESE 18:37:10 10° SSW
H-2A R/B 2.0 18:28:40 10° SSE 18:34:05 80° ENE 18:39:34 10° N
Cosmos 2082 3.7 18:28:33 10° NNW 18:34:19 86° WSW 18:38:04 23° SSE
Cosmos 883 Rocket 4.3 18:28:22 10° S 18:34:28 70° E 18:40:34 10° NNE
SJ-11-01 4.1 18:34:08 27° SSE 18:36:41 87° ENE 18:41:24 10° NNW
ARGOS 3.1 18:36:01 44° SE 18:37:38 65° ENE 18:43:02 10° N
YAOGAN 1 3.2 18:35:12 10° S 18:39:26 56° W 18:43:43 10° NNW
S3M 4.2 18:34:12 10° SSW 18:40:16 68° W 18:46:26 10° N
CRYOSAT 2 4.4 18:36:37 10° N 18:41:29 77° W 18:46:20 10° SSW
Cosmos 2315 Rocket 3.8 18:35:47 10° S 18:41:54 65° E 18:48:02 10° NNE
GEOS 3 Rocket 3.6 18:41:32 59° E 18:42:23 70° NE 18:47:45 10° NNW
SeaSat 1 2.7 18:43:27 50° NNE 18:43:27 50° NNE 18:47:42 10° NNW
USA 307 2.9 18:39:39 10° NW 18:43:35 74° NW 18:43:35 74° NW
Cosmos 1408 3.9 18:41:52 10° NNW 18:45:18 39° W 18:48:44 10° SSW
Cosmos 1812 Rocket 3.8 18:42:21 10° SSW 18:46:44 68° W 18:51:06 10° N
NOSS 3-4 (A) 4.0 18:40:38 10° NNW 18:47:24 52° NE 18:48:36 48° ENE
NOSS 3-4 (C) 4.0 18:40:44 10° NNW 18:47:30 52° NE 18:48:40 48° ENE
Cosmos 2369 3.8 18:41:47 10° SSW 18:47:30 76° WNW 18:51:18 22° NNE
USA 308 3.1 18:44:34 10° NW 18:48:20 68° WNW 18:48:20 68° WNW
DEBRIS 4.4 18:29:59 10° WSW 18:49:59 81° NNW 18:51:52 48° NE
USA 215 3.8 18:54:35 38° NE 18:55:33 40° NNE 19:01:33 10° NW
NOSS 3-3 (A) 4.2 18:49:47 10° SW 18:55:34 63° NW 18:59:03 28° NNE
NOSS 3-3 (C) 4.2 18:49:53 10° SW 18:55:41 64° NW 18:59:06 28° NNE
CSL-04 Rocket 4.0 18:51:53 10° S 18:57:24 66° WSW 19:02:54 10° NNW
Cosmos 2227 Rocket 3.9 18:53:29 10° NW 18:58:24 31° WSW 19:03:17 10° SSW
MOS 1 Rocket 3.8 18:54:03 10° N 18:58:42 61° WNW 19:03:37 10° SSW
Cosmos 2263 Rocket 3.0 18:57:18 10° NNW 19:01:09 37° NNE 19:01:09 37° NNE
CZ-4 R/B 3.7 19:00:41 10° SSW 19:03:47 23° W 19:06:53 10° NW
ATLAS 2AS CENTAUR R/B 2.9 19:02:11 10° NNW 19:09:28 56° NE 19:09:28 56° NE
BREEZE-M R/B 4.1 19:05:05 10° WNW 19:09:53 79° NNE 19:10:34 71° ENE
Cosmos 1825 4.1 19:06:41 10° NNW 19:09:13 28° WNW 19:09:13 28° WNW
Cosmos 1697 Rocket 3.8 19:07:27 10° SW 19:12:45 42° WNW 19:16:32 18° N
Lacrosse 5 3.6 19:08:30 10° NW 19:11:26 24° N 19:11:26 24° N
Atlas Centaur 2 4.1 19:08:15 10° WSW 19:15:22 30° S 19:16:23 30° S
Cosmos 44 Rocket 4.1 19:13:22 10° SW 19:17:11 47° W 19:17:11 47° W
SL-4 R/B 4.4 19:17:21 10° NW 19:18:22 18° NW 19:18:22 18° NW
Cosmos 1980 Rocket 2.9 19:30:22 10° SW 19:35:17 49° W 19:35:17 49° W
CZ-4C R/B 3.7 19:57:42 10° NNW 20:02:10 41° NNW 20:02:10 41° NNW
